Weather in Pustomiti

Ukraine / Lviv District     49˚43′13″N   23˚54′19″E
temp.,
°C
wind,
m/s
gust,
m/s
humid.,
%
clouds,
%
prec.,
mm/h
press.,
hPa
HPBL,
m
30 november, mon
mon3023:00−3˚wsw229838 0.0 102454
02:00−1˚w348865 0.1 1024485
05:00−2˚w3483100 0.0 1025597
08:00−2˚w3479100 0.1 1026627
11:00−1˚w358298 0.0 1027581
14:00−1˚w347796 0.1 1027640
17:00−3˚w238873 0.0 102852
20:00−3˚wsw128743 0.0 102843
1 december, tue
tue123:00−4˚s229113 0.0 102839
02:00−4˚sse22936 0.0 102846
05:00−4˚sse35930 0.0 1027131
08:00−5˚se37920 0.0 1027197
11:00−1˚sse59760 0.0 1027429
14:00se47700 0.0 1026447
17:00−3˚ese37830 0.0 1026152
20:00−3˚ese411820 0.0 1027312
2 december, wed
wed223:00−4˚ese310840 0.0 1027297
02:00−4˚ese38850 0.0 1027229
05:00−5˚ese36870 0.0 1026163
08:00−5˚e36940 0.0 1026163
11:00−2˚ese478631 0.0 1025359
14:00−1˚ese478560 0.0 1024528
17:00−1˚ese3786100 0.0 1023385
20:00−1˚se4888100 0.0 1023498
3 december, thu
thu323:00−1˚se4887100 0.0 1022546
02:00−3˚se399480 0.0 1022334
05:00−3˚se41094100 0.0 1021340
08:00−3˚sse4109586 0.0 1021308
11:00−1˚sse598550 0.0 1020334
14:00+1˚se597733 0.0 1019361
17:00−1˚se4118692 0.0 1018331
20:00−2˚se6128689 0.0 1018326
4 december, fri
fri423:00−2˚se6138668 0.0 1016309
02:00−1˚se6138734 0.0 1014322
05:00−1˚se6159258 0.0 1012374
08:00+1˚se6159349 0.0 1011448
11:00+4˚se7168553 0.0 1011532
14:00+6˚sse6138328 0.0 1009381
17:00+4˚se512882 0.0 1010234
20:00+5˚sse6139250 0.0 1011296